STARLINK-11123, 59948

Orbit data source: Space-Track

STARLINK-11123, 59948 is a payload satellite owned by SpaceX/Seattle (US) in LEO that was launched on Wed, 05 Jun 2024 UTC via an FALCON 9 launch vehicle from the Air Force Eastern Test Range (AFETR). Payload-class satellites include a variety of spacecraft equipped with specific instruments for various scientific and technological missions. These include communications satellites like Starlink; space stations such as the ISS; scientific satellites like the Hubble; Earth observation satellites from companies like Planet Labs, Umbra, and HawkEye 360; GPS; miniature CubeSats for education and research; and military/defense satellites.

Loading next visibility...
Identifier
59948, 2024-107D
Orbit
LEO
Last TLE update
13 hours ago
Origin
Manufacturer
SpaceX/Seattle
Mission
Operational spacecraft
Bus & Motor
STARLINK V2M, Unknown motor
Mass
730 kg wet, ~700 kg dry
Launch date (UTC)
2024-06-05 (11 months ago)
Launch vehicle
FALCON 9
Launch site
Air Force Eastern Test Range (AFETR)
Object type
Payload
Rocket body
Debris
Shape & HBR
Unknown
Radar Cross Section
Large (>1 m²)

Expand to show TLE details & history

TLE from 13 hours ago
0 STARLINK-11123
1 59948U 24107D   25128.84334035 -.00000782  00000-0 -16012-5 0  9991
2 59948  53.1592 314.2502 0000804  35.1424 324.9647 15.69713370 54321
Epoch: 2025-05-08T20:14Z
Definitive object data (Epoch: 2025-05-08T20:14:24.606Z)
Latitude
0.00001°
Longitude
143.73966°
Altitude
360.189 km
Speed
7.695 km/s
True Right ascension
20h 57m 00s
True Declination
0° 00' 00"
Sunlit
Object was in daylight at TLE epoch
Visualization TLE readout
Latitude
-50.12846°
Longitude
77.86166°
Altitude
377.188 km
Speed
7.683 km/s
Apparent Right ascension
09h 53m 01s
Apparent Declination
-79° 56' 50"
Sunlit
Object is in full shadow
Visualization observer readout
Local Sidereal Time
17:50:17
Azimuth
192.26° SSW
Elevation
-44.216°
Doppler factor
1
Orbital elements
Apogee altitude
360.52 km
Perigee altitude
359.436 km
Semi-major axis
6,738.115 km
Eccentricity
0.0000804
Inclination
53.1592°
RAAN
314.2502°
Arg. of periapsis
35.1424°
True anomaly
324.95941°
Mean anomaly
324.9647°
Eccentric anomaly
324.96206°
Mean motion
3.92406 °/min
BSTAR
-0.0000016012
Orbital period
91.74 mins
Loading maneuver chart data...
Loading SW <> Apogee altitude chart data...
Loading historical data...
Loading historical data...
Loading historical data...
Loading historical data...
Loading historical data...
Loading historical data...
Loading historical data...

STARLINK-11123 Visibility forecast

Observer location: undefined°, undefined°

Span
Click to sort rows by Start time (UTC) header in descending order
Start Az.
Max El. time (UTC)
Max El. Az.
Max El.
End time (UTC)
End Az.
5 mins2025-05-09 14:44:55.874Z212.429° SW2025-05-09 14:47:55.874Z98.877° ESE35.365°2025-05-09 14:49:55.874Z60.718° ENE
|